Wind_Speed
35 33 29 29 30 30 29 29 28 29 31 32 33 32 32 33 31 29 28 28 28 28 29 29 29 29 28 28 28 28 29 30 30 30 31 31 31 31 31 31 32 32 32 33
38 35 34 34 32 32 32 32 32 33 35 38 37 36 34 35 33 31 30 29 29 30 31 32 33 32 32 31 31 31 31 32 33 33 33 33 33 33 33 33 34 34 34 35
42 39 37 36 35 35 34 34 35 37 39 42 43 41 36 33 33 32 31 30 30 31 33 34 35 35 35 35 34 34 34 34 34 34 34 34 35 35 35 35 36 36 37 38
45 42 40 39 38 38 37 37 38 39 43 45 46 48 36 32 32 31 30 32 32 32 34 35 37 38 38 38 37 37 36 36 36 36 36 36 36 37 37 38 38 39 40 41
47 44 43 42 40 40 40 39 40 42 46 50 49 51 43 33 30 28 30 33 34 34 35 36 37 39 40 39 39 38 38 38 37 37 37 38 38 38 39 40 41 41 42 43
49 48 46 44 42 41 41 41 43 47 51 56 50 52 49 35 29 28 29 32 34 36 36 37 38 40 41 40 40 40 39 39 39 39 39 39 40 40 41 42 43 43 44 45
52 51 49 47 45 43 42 42 46 52 55 57 51 53 48 37 32 30 29 31 34 36 37 38 38 40 41 41 41 41 40 40 40 40 41 41 41 42 43 44 44 45 46 48
56 55 52 51 48 45 45 47 50 54 57 57 55 53 44 39 33 30 31 32 33 35 38 39 40 40 41 42 41 41 40 40 41 41 42 42 43 43 44 45 46 47 49 51
59 59 57 56 53 51 52 53 50 52 57 58 55 48 43 38 35 33 33 33 34 36 37 39 41 41 42 42 41 41 41 41 42 42 43 43 44 45 46 47 48 50 52 54
56 60 61 59 59 57 55 53 51 53 56 58 55 49 43 39 38 37 36 35 35 36 37 39 41 42 42 42 42 42 42 42 43 43 44 45 46 47 48 49 50 52 55 57
53 56 59 59 58 55 53 54 54 55 57 58 56 49 45 43 41 40 39 39 39 38 38 39 40 42 43 43 43 43 43 43 44 45 46 47 48 49 50 51 53 55 57 59
50 52 56 57 56 56 57 57 56 57 57 55 56 52 49 48 45 43 42 42 42 41 40 39 40 41 42 43 43 44 44 45 46 47 48 49 50 50 51 53 56 58 59 61
50 52 53 55 57 58 57 56 55 54 54 55 57 54 53 50 47 45 45 44 44 43 42 41 40 41 42 43 45 46 46 47 48 49 49 50 51 52 54 56 58 60 61 63
53 54 54 54 53 54 53 52 51 52 56 58 58 55 54 54 51 48 46 47 47 47 45 42 41 41 42 44 46 47 48 49 49 50 51 52 53 54 56 58 60 62 64 66
55 56 53 51 50 52 54 54 54 56 59 60 58 56 53 53 51 49 49 49 49 49 48 46 44 43 44 45 46 47 49 50 51 52 53 54 55 57 59 60 62 64 66 67
55 56 54 54 51 54 56 55 57 60 60 61 61 58 51 50 50 49 49 49 51 52 51 48 46 45 45 46 47 49 50 52 53 54 55 56 57 58 60 62 65 66 67 69
58 56 56 55 52 55 57 53 54 56 56 56 59 57 52 51 49 46 47 50 52 52 50 48 46 46 47 48 50 51 53 54 56 56 57 58 59 60 62 64 66 68 69 70
65 62 60 59 58 63 57 49 51 54 54 54 54 52 51 49 46 46 48 49 49 48 48 49 49 49 49 50 52 54 55 56 57 58 59 59 60 62 64 66 68 69 70 71
70 66 64 63 64 65 58 52 53 55 56 52 53 52 50 47 49 50 45 45 47 49 50 52 52 53 53 53 54 56 57 58 59 59 60 60 62 65 67 68 69 70 71 71
70 68 67 67 67 68 61 56 57 60 59 49 52 51 49 50 55 51 46 49 51 51 51 52 53 55 55 55 56 57 58 59 59 59 60 62 65 67 68 69 70 70 70 70
67 67 68 68 69 70 62 61 62 65 57 51 53 52 51 54 56 54 55 54 54 54 54 54 55 56 56 56 57 57 58 58 59 60 63 65 67 68 69 69 69 69 70 71
62 64 64 64 66 65 60 61 62 61 58 57 56 56 56 55 55 55 56 56 56 56 56 56 56 56 57 57 57 57 57 58 60 62 64 66 68 68 68 68 69 70 71 72
62 61 60 61 62 60 59 61 61 61 60 60 59 59 58 58 57 57 57 57 57 57 57 57 57 57 57 57 57 57 57 59 61 63 65 67 68 68 68 69 70 71 72 74
64 61 60 59 58 56 56 56 57 58 58 58 59 59 59 59 58 58 58 57 57 57 58 58 57 57 57 57 57 57 58 60 62 64 65 66 67 68 69 70 71 72 74 76
65 64 62 61 59 58 56 55 54 54 54 54 55 56 57 57 57 57 57 57 57 57 57 56 56 55 55 55 55 56 58 59 61 63 64 66 67 68 70 71 72 73 75 76
66 65 63 61 58 57 56 55 55 54 54 53 53 53 53 55 55 56 56 55 55 54 54 53 53 52 52 53 54 56 58 59 61 63 65 66 68 69 70 72 73 74 76 77
Wind_Direction
246 250 255 258 261 266 272 276 279 280 281 281 281 281 280 280 278 275 271 269 268 266 264 264 264 265 266 268 269 270 270 270 270 270 270 270 270 270 270 271 272 274 276 278
249 253 256 259 264 268 273 276 279 280 281 282 282 280 278 278 277 273 270 268 266 264 264 263 263 264 266 268 269 270 270 270 269 269 270 270 270 270 270 271 272 274 275 278
253 255 258 262 265 268 272 276 279 281 283 284 285 280 278 276 274 272 271 268 265 263 263 263 265 265 266 268 269 270 270 270 269 269 270 270 270 270 269 270 271 273 275 278
254 257 260 263 266 269 272 274 277 280 282 284 283 282 278 276 272 271 269 267 265 264 264 266 267 268 268 268 269 270 270 270 269 269 269 269 269 269 269 270 271 273 276 279
256 258 260 263 267 270 273 275 277 279 280 279 280 283 280 276 270 266 264 264 266 266 267 268 270 271 270 270 270 270 270 269 268 268 268 268 268 268 268 269 272 274 277 280
259 261 263 265 268 270 273 275 276 276 276 276 280 280 279 278 275 265 260 261 263 265 267 269 270 272 272 271 269 268 268 267 267 267 267 268 268 268 269 270 273 275 278 281
260 262 265 266 268 270 272 273 274 273 273 276 278 275 277 280 275 271 267 263 264 267 270 271 271 271 270 269 268 267 267 266 265 265 266 266 267 268 269 271 274 276 279 282
261 262 264 267 269 270 268 267 268 272 275 276 275 273 277 278 277 274 269 266 266 268 270 271 272 271 270 269 267 266 265 264 264 264 264 265 266 267 269 271 274 277 281 284
260 262 261 263 264 264 265 266 268 269 271 273 274 276 275 277 277 273 271 271 271 270 271 271 272 272 270 268 266 264 263 262 262 263 263 264 265 267 269 272 275 279 282 285
259 260 259 259 258 259 261 263 263 263 267 271 273 273 275 277 278 279 280 280 278 275 274 273 272 270 268 266 264 262 262 261 261 261 262 263 265 267 270 274 277 280 283 285
256 257 257 257 258 260 259 260 260 261 262 266 272 273 275 277 278 281 284 285 283 280 277 275 273 269 267 265 263 262 260 259 260 261 262 263 266 269 272 275 278 281 284 286
255 257 257 257 258 258 258 258 257 257 261 266 271 272 273 275 277 281 283 284 284 283 280 277 273 268 265 263 261 259 258 258 259 260 261 264 267 270 273 276 279 282 285 287
253 255 256 256 256 257 259 261 263 264 264 265 266 270 273 274 276 278 279 281 280 279 278 276 273 269 265 261 259 257 257 258 259 261 263 266 269 272 275 277 280 283 286 288
254 255 256 257 261 263 263 262 262 263 262 262 264 268 271 274 276 277 279 279 278 278 277 276 272 268 264 261 258 257 257 258 260 262 265 268 271 274 276 279 282 285 286 288
255 257 257 257 258 260 261 261 260 260 262 264 265 265 267 271 275 278 277 276 276 276 275 273 270 265 262 260 258 258 259 260 262 264 267 270 273 275 278 281 284 285 287 289
259 262 261 258 257 259 259 258 260 262 263 264 266 265 269 272 271 271 271 272 272 272 271 271 269 266 264 262 260 260 261 262 264 267 270 272 275 278 281 283 285 286 287 289
256 260 262 261 259 259 256 257 260 262 263 264 265 265 266 266 267 268 267 266 267 269 271 271 270 267 264 263 262 262 263 264 267 269 272 275 277 280 282 283 284 285 286 287
252 254 258 260 259 258 258 257 257 259 259 260 264 265 265 268 268 265 265 266 267 267 267 267 265 265 264 263 263 264 266 268 270 272 274 277 278 279 280 281 283 284 285 286
250 252 254 256 258 261 259 257 259 262 260 260 264 263 264 269 268 264 266 267 265 263 262 263 264 265 265 266 267 268 270 271 273 274 276 276 277 278 279 280 281 282 284 285
249 250 252 255 257 258 261 261 261 264 262 260 266 266 266 267 267 264 263 264 264 265 266 266 266 267 268 269 270 271 272 273 274 274 274 274 275 277 278 279 280 281 283 285
248 250 252 254 257 260 262 261 262 264 266 264 266 266 265 264 266 265 264 266 267 267 268 268 268 269 269 270 270 271 272 273 273 272 272 273 275 276 276 277 279 281 283 285
250 251 252 255 258 260 261 260 261 265 266 265 265 266 266 266 266 266 266 268 269 269 269 269 270 270 270 271 271 272 272 271 270 270 271 272 273 273 275 277 279 282 284 286
249 252 255 256 258 261 260 261 262 263 265 265 266 267 267 268 268 269 269 269 269 270 270 271 271 271 271 272 272 271 270 269 268 268 269 270 272 274 276 278 281 283 284 285
250 251 254 256 258 259 261 262 263 264 265 265 266 267 269 270 270 271 271 271 271 271 271 271 272 272 272 271 270 269 268 267 267 267 269 271 273 275 278 280 282 283 284 284
252 252 255 259 260 262 262 263 264 265 265 265 265 267 268 269 270 271 272 273 273 273 273 273 272 272 271 270 268 267 266 267 268 269 271 273 275 277 279 281 282 283 283 284
255 256 258 262 264 265 266 266 267 267 267 266 266 267 267 268 270 271 271 272 272 272 272 272 272 270 269 269 268 268 268 269 271 272 274 276 278 279 281 281 282 282 283 284
Height
5835 5839 5842 5842 5842 5843 5844 5845 5846 5846 5845 5844 5845 5845 5846 5844 5845 5846 5845 5845 5845 5844 5844 5844 5844 5844 5844 5844 5844 5843 5843 5843 5842 5842 5841 5841 5841 5840 5840 5839 5838 5837 5836 5835
5829 5832 5834 5834 5836 5837 5837 5837 5838 5838 5836 5835 5836 5837 5838 5837 5838 5838 5838 5839 5838 5837 5837 5836 5836 5836 5837 5837 5837 5836 5836 5836 5835 5835 5835 5834 5834 5833 5833 5832 5831 5830 5828 5827
5820 5824 5825 5827 5828 5829 5830 5830 5829 5828 5827 5826 5825 5826 5830 5831 5830 5831 5831 5830 5830 5830 5829 5828 5828 5829 5829 5829 5829 5829 5828 5828 5828 5827 5827 5827 5826 5826 5825 5824 5823 5822 5820 5819
5811 5815 5817 5818 5820 5820 5821 5822 5821 5819 5817 5816 5815 5811 5822 5824 5823 5823 5823 5822 5821 5821 5821 5821 5820 5820 5820 5820 5820 5820 5820 5820 5820 5819 5819 5819 5818 5818 5817 5816 5815 5813 5811 5810
5802 5806 5807 5809 5812 5811 5812 5812 5812 5810 5808 5805 5806 5803 5807 5814 5816 5817 5816 5814 5813 5813 5813 5813 5812 5811 5811 5811 5811 5811 5811 5811 5811 5811 5810 5810 5809 5809 5808 5807 5805 5804 5802 5800
5792 5794 5797 5801 5802 5802 5802 5802 5801 5799 5797 5793 5799 5795 5790 5804 5807 5808 5808 5807 5805 5804 5805 5804 5804 5802 5802 5802 5802 5801 5801 5801 5801 5801 5801 5800 5800 5799 5798 5797 5795 5794 5791 5789
5781 5783 5786 5789 5791 5792 5793 5793 5790 5787 5785 5783 5788 5783 5782 5793 5797 5798 5799 5798 5797 5796 5795 5795 5794 5793 5792 5791 5791 5791 5791 5791 5791 5791 5791 5790 5790 5789 5788 5786 5785 5783 5780 5777
5767 5771 5776 5777 5779 5780 5780 5781 5780 5777 5774 5773 5773 5770 5777 5782 5786 5788 5788 5788 5788 5787 5786 5785 5784 5782 5782 5781 5781 5781 5781 5781 5781 5780 5780 5779 5779 5778 5777 5775 5773 5771 5768 5765
5755 5758 5761 5764 5765 5766 5767 5767 5770 5767 5763 5759 5759 5762 5767 5771 5774 5776 5778 5778 5778 5777 5776 5774 5772 5771 5770 5770 5769 5769 5769 5769 5770 5769 5769 5768 5767 5766 5765 5763 5761 5759 5756 5752
5740 5742 5745 5748 5750 5753 5754 5756 5756 5754 5752 5748 5748 5751 5755 5761 5762 5764 5765 5766 5766 5765 5764 5762 5760 5759 5758 5757 5757 5758 5758 5758 5758 5758 5758 5757 5756 5754 5753 5751 5749 5746 5742 5739
5725 5727 5730 5732 5736 5740 5742 5743 5742 5742 5741 5739 5737 5741 5747 5750 5752 5753 5754 5753 5752 5752 5752 5750 5748 5747 5746 5746 5746 5746 5747 5747 5747 5746 5746 5745 5743 5742 5740 5738 5735 5732 5728 5725
5713 5712 5714 5719 5722 5724 5725 5727 5728 5729 5730 5731 5729 5729 5737 5738 5739 5741 5742 5740 5739 5739 5739 5738 5737 5735 5735 5734 5734 5734 5735 5735 5735 5734 5733 5732 5731 5729 5727 5725 5721 5718 5714 5710
5698 5697 5700 5704 5708 5709 5710 5714 5716 5718 5719 5719 5717 5719 5722 5726 5728 5729 5729 5728 5727 5726 5726 5725 5724 5724 5723 5722 5722 5722 5722 5722 5722 5721 5721 5719 5718 5716 5713 5710 5707 5704 5700 5695
5681 5681 5686 5692 5696 5695 5697 5701 5703 5702 5702 5704 5706 5710 5713 5711 5713 5715 5715 5714 5712 5712 5712 5712 5712 5711 5711 5710 5710 5710 5710 5710 5709 5709 5708 5707 5705 5702 5699 5696 5693 5689 5684 5679
5664 5666 5672 5678 5682 5680 5681 5684 5686 5685 5688 5689 5694 5697 5702 5701 5701 5701 5700 5699 5698 5698 5698 5698 5698 5698 5697 5697 5698 5698 5698 5697 5696 5695 5694 5693 5690 5687 5684 5681 5677 5672 5667 5663
5649 5651 5656 5660 5667 5663 5662 5668 5671 5671 5673 5674 5678 5682 5693 5689 5687 5686 5686 5685 5683 5682 5682 5683 5684 5684 5684 5685 5685 5684 5684 5683 5682 5681 5680 5678 5675 5672 5669 5665 5660 5655 5651 5646
5633 5636 5639 5643 5651 5641 5643 5659 5660 5658 5659 5661 5661 5671 5675 5671 5672 5672 5673 5670 5669 5669 5670 5670 5671 5671 5670 5670 5670 5670 5669 5668 5667 5666 5664 5662 5659 5656 5653 5648 5643 5639 5634 5628
5618 5622 5623 5626 5627 5619 5638 5650 5644 5642 5644 5646 5649 5656 5657 5656 5655 5656 5658 5657 5657 5657 5657 5656 5655 5655 5655 5655 5654 5654 5653 5653 5652 5650 5648 5646 5643 5640 5635 5631 5627 5622 5617 5611
5604 5606 5607 5608 5606 5606 5623 5634 5632 5627 5628 5638 5637 5640 5642 5641 5636 5642 5646 5643 5642 5641 5641 5641 5641 5641 5641 5640 5640 5639 5638 5637 5635 5634 5632 5629 5626 5622 5618 5614 5610 5605 5599 5594
5587 5589 5591 5591 5590 5590 5611 5620 5613 5609 5612 5631 5624 5625 5627 5624 5619 5629 5631 5625 5625 5626 5626 5627 5626 5626 5626 5626 5624 5623 5622 5621 5619 5617 5615 5611 5608 5605 5602 5597 5592 5587 5582 5577
5570 5571 5572 5574 5573 5576 5598 5601 5594 5591 5605 5612 5606 5607 5609 5607 5607 5612 5611 5610 5610 5611 5611 5611 5610 5610 5610 5609 5608 5607 5606 5605 5603 5600 5597 5595 5592 5588 5584 5580 5575 5570 5565 5559
5553 5555 5558 5560 5559 5567 5583 5580 5578 5580 5586 5588 5588 5588 5590 5591 5592 5593 5595 5595 5594 5594 5594 5594 5594 5594 5593 5593 5592 5591 5590 5588 5585 5583 5581 5578 5574 5571 5567 5562 5558 5553 5547 5541
5536 5541 5544 5546 5549 5557 5560 5561 5562 5564 5566 5568 5570 5571 5572 5573 5574 5575 5577 5578 5578 5577 5577 5577 5577 5576 5576 5575 5574 5574 5572 5570 5569 5567 5564 5561 5557 5554 5549 5545 5540 5534 5528 5522
5521 5526 5527 5530 5534 5540 5542 5543 5544 5547 5549 5551 5552 5554 5555 5555 5556 5557 5559 5560 5560 5560 5560 5559 5559 5558 5558 5557 5556 5556 5555 5553 5552 5550 5547 5543 5540 5536 5531 5526 5521 5515 5509 5503
5506 5510 5512 5514 5519 5523 5525 5527 5529 5531 5532 5534 5535 5537 5538 5538 5539 5540 5540 5541 5541 5541 5541 5541 5541 5540 5540 5539 5539 5538 5537 5536 5534 5532 5529 5525 5521 5517 5512 5507 5502 5496 5490 5483
5491 5495 5498 5501 5505 5508 5510 5512 5513 5515 5516 5518 5520 5521 5521 5522 5523 5523 5524 5524 5524 5524 5524 5524 5523 5523 5523 5522 5521 5521 5519 5518 5516 5513 5510 5506 5502 5497 5493 5487 5482 5475 5470 5463